Find Starlink 30235

NORAD ID: 57294 Int'l Des: 2023-096 Owner: SPXS Country: US Constellation: starlink operational
LEOCIRCULAR

实时位置

正在加载3D地球...

关于 Starlink 30235

正在加载描述...

即将过境

Passes for default location (London). Set your location on the main map for personalized predictions.

高度历史

Loading altitude history...

两行轨道根数

1 57294U 23096E 26129.99750638 -.00001960 00000-0 -61663-4 0 9998
2 57294 43.0002 236.9434 0001089 276.2127 83.8601 15.27605131156991
Epoch: May 9, 2026 • Age: 16 hours

当前状态

高度 486.5 km
速度 7.63 km/s
星下点 41.88°N, 161.89°W
发射日期 Jul 10, 2023
运行时间 2.8 years
类型 internet

技术详情

分类 Payload
质量 730.00 kg
干质量 700.00 kg
总质量 730.00 kg
长度 0.30 m
直径 4.10 m
跨度 29.00 m
形状 Box + pan
制造商 SPXS
平台类型 Starlink V2M
阶段状态 In Orbit
所有者/国家 SPXS/US

Most Searched